• Join FlightAware (Why Join?)
  • Login
  • US Flag 
11:24AM EDT


 

Airport Tracker/Info


-or-


 

Live Flight TrackerFlight Track Log ✈ EJA396 ✈ 05-May-2013 ✈ KPSP - KBFI

Flight Track Log - Related Links

Times and Time Zones

All times are in EDT time to prevent confusion due to time zone crossing. See the EJA396 flight status page for this flight to view local times or setup timezone preferences in your user account.

Time Position Orientation Groundspeed Altitude Reporting Facility
EDT Latitude Longitude Course Direction KTS MPH feet Rate Location/Type
02:08PM 33.8475 -116.5239 324° Northwest 172 198 38,000  Level Los Angeles Center
02:09PM 33.8931 -116.5636 324° Northwest 218 251 7,000 -13,020 Descending Los Angeles Center
02:10PM 33.9603 -116.5636 360° North 279 321 11,200 3,720 Climbing Los Angeles Center
02:11PM 34.0406 -116.5400 14° North 288 331 14,800 3,360 Climbing Los Angeles Center
02:12PM 34.1344 -116.5342 North 331 381 18,200 2,580 Climbing Los Angeles Center
02:13PM 34.2336 -116.5708 343° North 369 425 20,200 1,920 Climbing Los Angeles Center
02:14PM 34.3403 -116.6136 342° North 398 458 22,200 1,320 Climbing Los Angeles Center
02:15PM 34.4497 -116.6669 338° Northwest 423 487 23,000 720 Climbing Los Angeles Center
02:16PM 34.5158 -116.8078 300° West 397 457 23,700 1,140 Climbing Los Angeles Center
02:17PM 34.5275 -116.9397 276° West 395 455 25,400 1,560 Climbing Los Angeles Center
02:18PM 34.5589 -117.0664 287° West 396 456 27,000 1,380 Climbing Los Angeles Center
02:19PM 34.6489 -117.1422 325° Northwest 402 463 28,300 1,140 Climbing Los Angeles Center
02:20PM 34.7631 -117.1894 341° North 427 491 29,400 1,080 Climbing Los Angeles Center
02:21PM 34.9072 -117.2486 341° North 452 520 30,600 1,020 Climbing Los Angeles Center
02:22PM 35.0311 -117.3000 341° North 469 540 31,600 960 Climbing Los Angeles Center
02:23PM 35.1553 -117.3519 341° North 478 550 32,700 1,020 Climbing Los Angeles Center
02:24PM 35.2789 -117.4025 342° North 478 550 33,800 1,200 Climbing Los Angeles Center
02:25PM 35.4258 -117.4653 341° North 473 544 35,200 1,260 Climbing Los Angeles Center
02:26PM 35.5469 -117.5178 341° North 468 539 36,500 1,200 Climbing Los Angeles Center
02:27PM 35.6664 -117.5686 341° North 460 529 37,800 720 Climbing Los Angeles Center
02:28PM 35.7844 -117.6189 341° North 453 521 38,000 60 Climbing Los Angeles Center
02:29PM 35.9064 -117.6711 341° North 461 531 38,000  Level Los Angeles Center
02:31PM 36.0283 -117.7261 340° North 466 536 38,000  Level Los Angeles Center
02:32PM 36.1981 -117.7981 341° North 463 533 38,000  Level Los Angeles Center
02:33PM 36.3206 -117.8517 341° North 465 535 38,000  Level Los Angeles Center
02:34PM 36.4178 -117.8944 341° North 464 534 38,000  Level Los Angeles Center
02:35PM 36.5650 -117.9589 341° North 467 537 38,000  Level Los Angeles Center
02:36PM 36.6878 -118.0122 341° North 467 537 38,000  Level Los Angeles Center
02:37PM 36.7981 -118.0594 341° North 468 539 38,000  Level Los Angeles Center
02:38PM 36.9464 -118.1256 340° North 471 542 38,000  Level Los Angeles Center
02:39PM 37.0953 -118.1914 341° North 472 543 38,000  Level Los Angeles Center
02:40PM 37.2186 -118.2453 341° North 469 540 38,000  Level Los Angeles Center
02:41PM 37.3403 -118.2978 341° North 469 540 38,000  Level Oakland Center
02:42PM 37.4636 -118.3522 341° North 469 540 38,000  Level Oakland Center
02:43PM 37.6136 -118.4203 340° North 473 544 38,000  Level Oakland Center
02:44PM 37.7378 -118.4756 341° North 473 544 38,000  Level Oakland Center
02:45PM 37.8614 -118.5314 340° North 471 542 38,000  Level Oakland Center
02:46PM 37.9864 -118.5883 340° North 474 545 38,000  Level Oakland Center
02:47PM 38.1094 -118.6442 340° North 470 541 38,000  Level Oakland Center
02:48PM 38.2458 -118.7056 341° North 475 547 38,000  Level Oakland Center
02:49PM 38.3703 -118.7636 340° North 474 545 38,000  Level Oakland Center
02:50PM 38.4944 -118.8189 341° North 473 544 38,000  Level Oakland Center
02:51PM 38.6186 -118.8783 339° North 475 547 38,000  Level Oakland Center
02:52PM 38.7444 -118.9364 340° North 477 549 38,000  Level Oakland Center
02:53PM 38.8694 -118.9942 340° North 476 548 38,000  Level Oakland Center
02:54PM 38.9942 -119.0519 340° North 474 545 38,000  Level Oakland Center
02:55PM 39.1178 -119.1108 340° North 470 541 38,000  Level Oakland Center
02:56PM 39.2417 -119.1697 340° North 471 542 38,000  Level Oakland Center
02:57PM 39.3653 -119.2283 340° North 468 539 38,000  Level Oakland Center
02:59PM 39.4875 -119.2856 340° North 465 535 38,000  Level Oakland Center
03:00PM 39.6100 -119.3439 340° North 464 534 38,000  Level Oakland Center
03:01PM 39.7333 -119.4044 339° North 469 540 38,000  Level Oakland Center
03:02PM 39.8822 -119.4750 340° North 472 543 38,000  Level Oakland Center
03:03PM 40.0056 -119.5344 340° North 471 542 38,000  Level Oakland Center
03:04PM 40.1281 -119.5947 339° North 470 541 38,000  Level Oakland Center
03:05PM 40.2514 -119.6542 340° North 471 542 38,000  Level Oakland Center
03:06PM 40.3769 -119.7139 340° North 480 552 38,000  Level Oakland Center
03:07PM 40.4989 -119.7750 339° North 471 542 38,000  Level Oakland Center
03:08PM 40.6122 -119.8344 338° Northwest 467 537 38,000  Level Oakland Center
03:09PM 40.7364 -119.8958 339° North 474 545 38,000  Level Oakland Center
03:10PM 40.8847 -119.9678 340° North 474 545 38,000  Level Oakland Center
03:11PM 41.0069 -120.0300 339° North 473 544 38,000  Level Oakland Center
03:12PM 41.1300 -120.0897 340° North 470 541 38,000  Level Seattle Center
03:13PM 41.2511 -120.1511 339° North 468 539 38,000  Level Seattle Center
03:14PM 41.3725 -120.2119 339° North 469 540 38,000  Level Seattle Center
03:15PM 41.4953 -120.2736 339° North 472 543 38,000  Level Seattle Center
03:16PM 41.6428 -120.3489 339° North 474 545 38,000  Level Seattle Center
03:17PM 41.7664 -120.4114 339° North 476 548 38,000  Level Seattle Center
03:18PM 41.8886 -120.4744 339° North 472 543 38,000  Level Seattle Center
03:19PM 42.0111 -120.5375 339° North 474 545 38,000  Level Seattle Center
03:20PM 42.1325 -120.5983 340° North 466 536 38,000  Level Seattle Center
03:21PM 42.2531 -120.6619 339° North 465 535 38,000  Level Seattle Center
03:22PM 42.3731 -120.7231 339° North 462 532 38,000  Level Seattle Center
03:23PM 42.4933 -120.7867 339° North 463 533 38,000  Level Seattle Center
03:24PM 42.6125 -120.8489 339° North 461 531 38,000  Level Seattle Center
03:25PM 42.7300 -120.9108 339° North 455 524 38,000  Level Seattle Center
03:26PM 42.8703 -120.9833 339° North 453 521 38,000  Level Seattle Center
03:27PM 42.9867 -121.0450 339° North 453 521 38,000  Level Seattle Center
03:28PM 43.1033 -121.1086 338° Northwest 453 521 38,000  Level Seattle Center
03:29PM 43.2206 -121.1736 338° Northwest 454 522 38,000  Level Seattle Center
03:31PM 43.3698 -121.2494 340° North  Level FlightAware Approximate
03:31PM 43.4500 -121.2922 340° North 444 511 38,000  Level Seattle Center
03:32PM 43.5675 -121.3583 338° Northwest 450 518 38,000  Level Seattle Center
03:33PM 43.6828 -121.4239 338° Northwest 451 519 38,000  Level Seattle Center
03:34PM 43.7981 -121.4867 339° North 448 516 38,000  Level Seattle Center
03:35PM 43.9242 -121.5536 339° North 446 513 38,000  Level Seattle Center
03:36PM 44.0392 -121.6156 339° North 442 509 38,000  Level Seattle Center
03:37PM 44.1536 -121.6800 338° Northwest 443 510 38,000  Level Seattle Center
03:38PM 44.2675 -121.7431 338° Northwest 440 506 38,000  Level Seattle Center
03:39PM 44.3817 -121.8064 338° Northwest 439 505 38,000  Level Seattle Center
03:40PM 44.4936 -121.8686 338° Northwest 434 499 38,000  Level Seattle Center
03:41PM 44.6036 -121.9311 338° Northwest 430 495 38,000  Level Seattle Center
03:42PM 44.7342 -122.0050 338° Northwest 425 489 38,000 -720 Level Seattle Center
03:43PM 44.8411 -122.0650 338° Northwest 419 482 36,600 -1,020 Descending Seattle Center
03:44PM 44.9578 -122.1336 337° Northwest 437 503 36,000 -300 Descending Seattle Center
03:45PM 45.0686 -122.1978 338° Northwest 434 499 36,000 -300 Level Seattle Center
03:46PM 45.1839 -122.2628 338° Northwest 445 512 35,500 -840 Descending Seattle Center
03:47PM 45.2944 -122.3264 338° Northwest 438 504 34,400 -1,320 Descending Seattle Center
03:48PM 45.4061 -122.3914 338° Northwest 435 501 32,900 -1,500 Descending Seattle Center
03:50PM 45.5172 -122.4564 338° Northwest 436 502 31,400 -1,500 Descending Seattle Center
03:51PM 45.6300 -122.5211 338° Northwest 439 505 29,900 -1,560 Descending Seattle Center
03:52PM 45.7417 -122.5856 338° Northwest 437 503 28,300 -1,680 Descending Seattle Center
03:53PM 45.8556 -122.6153 350° North 426 490 26,500 -1,740 Descending Seattle Center
03:54PM 45.9708 -122.6461 349° North 423 487 24,800 -1,680 Descending Seattle Center
03:55PM 46.1053 -122.6836 349° North 416 479 23,100 -1,500 Descending Seattle Center
03:56PM 46.2056 -122.7072 351° North 400 460 21,800 -1,320 Descending Seattle Center
03:57PM 46.3131 -122.7364 349° North 395 455 20,500 -1,380 Descending Seattle Center
03:58PM 46.4181 -122.7628 350° North 390 449 19,100 -1,380 Descending Seattle Center
03:59PM 46.5225 -122.7786 354° North 385 443 17,800 -1,380 Descending Seattle Center
04:00PM 46.6206 -122.7475 12° North 363 418 16,400 -1,560 Descending Seattle Center
04:01PM 46.7386 -122.7161 10° North 352 405 14,700 -1,560 Descending Seattle Center
04:02PM 46.8350 -122.6892 11° North 353 406 13,300 -1,380 Descending Seattle Center
04:02PM 46.8653 -122.6825 North 354 407 12,900 -1,380 Descending Seattle Center
04:03PM 46.9322 -122.6622 12° North 355 409 11,900 -1,380 Descending Seattle Center
04:04PM 47.0328 -122.6342 11° North 345 397 10,400 -1,440 Descending Seattle Center
04:05PM 47.1122 -122.6142 10° North 275 316 8,900 -1,260 Descending Seattle Center
04:06PM 47.1836 -122.5917 12° North 284 327 8,000 -480 Descending Seattle Center
04:07PM 47.2344 -122.5036 50° Northeast 272 313 8,000 -120 Level Seattle Center
04:08PM 47.2761 -122.4161 55° Northeast 265 305 7,800 -840 Descending Seattle Center
04:09PM 47.3189 -122.3297 54° Northeast 263 303 6,300 -1,560 Descending Seattle Center
04:10PM 47.3594 -122.2458 54° Northeast 254 292 4,700 -1,740 Descending Seattle Center
04:11PM 47.4114 -122.2253 15° North 203 234 2,900 -1,500 Descending Seattle Center
04:12PM 47.4569 -122.2433 345° North 154 177 1,700 -960 Descending Seattle Center
04:13PM 47.4811 -122.2633 331° Northwest 104 120 1,000 -660 Descending Seattle Center
04:14PM 47.5047 -122.2822 332° Northwest 98 113 400 -480 Descending Seattle Center
04:15PM 47.5264 -122.2981 334° Northwest 98 113 100 -300 Descending Seattle Center